Location: Boneville
(33.4331°N, 82.4399°W)
Time: 02:07:46
(UTC+00:00)

X-37B - Visible Passes

Search period start: 07 December 2021 00:00
Search period end: 17 December 2021 00:00
Orbit: 330 x 341 km, 45.0° (Epoch: 20 November)

Date Brightness Start Highest point End Pass type
(mag) Time Alt. Az. Time Alt. Az. Time Alt. Az.
07 Dec 1.8 23:18:47 10° W 23:21:22 30° NNW 23:23:02 17° NNE visible
08 Dec 2.6 23:40:17 10° WNW 23:42:04 15° NNW 23:42:38 14° N visible
10 Dec 2.7 22:45:41 10° WNW 22:47:30 15° NNW 22:49:18 10° NNE visible
16 Dec 2.4 23:14:52 10° NNW 23:16:32 14° NNE 23:17:08 13° NNE visible
